Regional Weather Roundup
Issued by NWS

Home | Current Version | Previous Version | Graphics & Text | Print | Product List | Glossary On
Versions: 1 2 3 4 5 6 7 8 9 10 11 12 13 14 15 16 17 18 19 20 21 22 23 24 25 26 27 28 29 30 31 32 33 34 35 36 37 38 39 40 41 42 43 44 45 46 47 48 49 50
349
ASUS44 KLIX 221001
RWRLA
LOUISIANA WEATHER ROUNDUP
NATIONAL WEATHER SERVICE NEW ORLEANS LA
500 AM CDT TUE JUL 22 2014

NOTE: "FAIR" INDICATES FEW OR NO CLOUDS BELOW 12,000 FEET WITH NO
      SIGNIFICANT WEATHER AND/OR OBSTRUCTIONS TO VISIBILITY.
      SKY/WX - SKY CONDITION AND SIGNIFICANT WEATHER.
      TMP - AIR TEMPERATURE.    DP   - DEWPOINT TEMPERATURE.
      RH  - RELATIVE HUMIDITY.  PRES - PRESSURE.
      HX  - HEAT INDEX.         WCI  - WIND CHILL INDEX.

*  THESE STATIONS ARE NOT NWS OR FAA STATIONS AND ARE NOT UNDER
   NWS QUALITY CONTROL.

LAZ040-048-061>063-065-066-069-221100-
SOUTHEAST LOUISIANA

CITY           SKY/WX    TMP DP  RH WIND       PRES   REMARKS
N.O. AUDUBON     N/A     79  76  92 MISG        N/A
N.O. INTL ARPT MOCLDY    78  73  84 CALM      29.99S
N.O. LAKEFRONT CLEAR     80  73  79 CALM      30.00R
N.O. DOWNTOWN* FAIR      81  72  74 CALM      30.00R
SLIDELL        CLEAR     72  70  93 N3        29.99S
BATON ROUGE    PTCLDY    72  69  90 CALM      30.01R
BOOTHVILLE     CLEAR     78  76  93 CALM      29.99R FOG
BELLE CHASSE   PTCLDY    76  72  87 CALM      29.99R
BOGALUSA*      FAIR      72  68  87 CALM      30.02R
GALLIANO*      NOT AVBL
NEW ROADS*     FAIR      72  70  95 CALM      30.02R
GONZALES*      FAIR      73  73 100 CALM      30.00R FOG
HAMMOND*       CLEAR     72  68  88 CALM      30.02R
HOUMA*         PTCLDY    74  72  91 CALM      30.00R FOG
PORT FOURCHON* SUNNY     81  75  83 CALM      30.01R

$$

LAZ041-044-053-054-221100-
SOUTHWEST LOUISIANA

CITY           SKY/WX    TMP DP  RH WIND       PRES   REMARKS
LAKE CHARLES   PTCLDY    77  75  93 CALM      30.01S FOG
LAFAYETTE      PTCLDY    76  73  91 CALM      30.01R
PATTERSON      NOT AVBL
SALT POINT       N/A     80  77  90 CALM      30.00R
NEW IBERIA     PTCLDY    77  73  87 NE5       30.00S
CHENAULT AIRPK NOT AVBL

$$

LAZ027-028-221100-
CENTRAL LOUISIANA

CITY           SKY/WX    TMP DP  RH WIND       PRES   REMARKS
FORT POLK      MOCLDY    75  69  81 CALM      30.03R
ALEXANDRIA INT CLEAR     69  68  96 CALM      30.01R FOG
ALEXANDRIA     CLEAR     68  65  90 CALM      30.02S FOG

$$

LAZ001-002-221100-
NORTHWEST LOUISIANA

CITY           SKY/WX    TMP DP  RH WIND       PRES   REMARKS
SHREVEPORT     PTCLDY    69  67  93 CALM      30.02F
BARKSDALE AFB  CLEAR     67  67 100 CALM      30.03F
DTN SHREVEPORT CLEAR     69  67  93 CALM      30.03F

$$

LAZ014-016-221100-
NORTHEAST LOUISIANA

CITY           SKY/WX    TMP DP  RH WIND       PRES   REMARKS
MONROE         CLEAR     70  68  94 CALM      30.05R FOG
TALLULAH       CLEAR     68  67  96 N3        30.03S

$$




USA.gov is the U.S. government's official web portal to all federal, state and local government web resources and services.